User: anonymous   Login
Location: Aurora Center
(43.5271°N, 98.5894°W)
Time: 06:55:41
(UTC-05:00)
Language:

Vanguard 2 - Orbit

View from above orbital plane
View from above orbital plane
View from above satellite
View from above satellite

Ground track
Ground track

The orbit data is extracted from the following two-line orbital elements,

1    11U 59001A   24201.21578473  .00001937  00000-0  10265-2 0  9999
2    11  32.8626 203.3651 1455244  49.9296 322.0119 11.88538673794069
Epoch (UTC): 19 July 2024 05:10:43
Eccentricity: 0.1455244
inclination: 32.8626°
perigee height: 552 km
apogee height: 2913 km
right ascension of ascending node: 203.3651°
argument of perigee: 49.9296°
revolutions per day: 11.88538673
mean anomaly at epoch: 322.0119°
orbit number at epoch: 79406

The dashed part of the orbit path shows where the satellite is in the earth's shadow,  

DLR